Temperature
15 15 15 15 15 15 15 14 14 14 14 15 15 15 15 15 16 16 16 16 16 16 16 15 15 15 15 15 15 15 15 15 14 14 14 15 15 15
14 14 14 14 14 14 14 14 14 14 14 14 14 15 15 15 15 15 15 16 16 16 16 15 15 15 15 15 15 15 14 14 14 14 14 14 15 15
14 14 14 14 14 14 14 13 13 13 14 14 14 14 14 14 15 15 15 15 15 15 15 15 15 15 14 14 14 14 14 14 14 14 14 14 14 14
13 13 13 13 13 13 13 13 13 13 13 13 14 14 14 14 14 14 15 15 15 15 15 15 15 14 14 14 14 14 14 14 14 14 14 14 14 14
13 13 13 13 13 13 13 13 13 13 13 13 13 13 13 14 14 14 14 14 14 14 14 14 14 14 14 14 14 14 14 14 14 14 14 14 14 14
12 12 12 12 12 12 12 12 13 13 13 13 13 13 13 13 13 13 13 14 13 13 14 14 14 14 14 13 13 13 13 13 13 13 13 13 13 13
12 12 12 12 12 12 12 12 13 13 13 13 13 13 13 13 13 13 13 13 13 13 13 13 13 13 13 13 13 13 13 13 13 13 13 13 13 12
12 12 12 12 12 12 12 13 13 13 13 13 13 13 13 13 13 13 13 13 13 12 12 12 12 12 12 12 12 12 12 12 12 12 12 12 12 12
12 12 12 12 12 12 12 13 13 13 13 13 13 13 13 13 13 13 13 13 12 12 12 11 11 11 11 11 11 11 11 11 11 11 11 11 11 11
12 12 12 12 12 12 12 12 12 13 13 12 13 12 13 13 13 13 13 12 12 12 12 11 11 10 10 10 10 10 10 10 10 10 10 10 10 10
11 11 11 12 12 12 12 12 12 13 13 13 13 13 13 13 13 12 12 12 12 11 11 11 10 10 10 10 10 10 10 10 10 10 10 9 9 9
11 11 11 12 12 12 12 12 12 13 13 13 13 13 13 13 12 12 12 12 12 11 11 11 10 10 9 9 9 9 9 9 9 9 9 9 9 8
10 10 11 11 12 12 12 12 12 12 12 12 12 12 12 12 12 12 12 12 12 11 11 11 10 10 10 9 8 8 8 8 8 8 8 8 8 8
10 10 11 11 11 12 12 12 12 12 12 12 12 12 12 12 12 12 12 12 12 12 11 10 10 10 10 9 8 8 8 7 7 7 6 7 7 7
9 10 10 11 11 11 12 12 12 12 12 12 12 12 12 12 12 12 11 11 11 11 11 10 10 10 10 9 8 8 7 7 6 6 6 6 6 6
9 10 10 10 11 11 11 12 12 12 12 12 12 12 11 11 11 11 11 10 10 10 10 10 10 9 9 8 8 7 7 6 6 6 5 5 5 5
9 9 10 10 10 11 11 11 11 12 12 12 12 11 11 11 10 10 10 10 10 9 9 9 9 9 9 8 7 7 7 6 6 5 5 5 5 5
9 9 10 10 10 11 11 11 11 11 11 11 11 11 11 10 10 10 9 9 9 8 8 8 7 7 8 7 7 6 6 6 5 5 5 5 5 5
9 9 10 10 10 11 11 11 11 11 11 11 10 10 10 10 10 9 9 9 9 8 8 7 7 8 8 7 6 6 6 5 5 5 5 5 5 5
9 10 10 10 10 10 11 11 11 11 10 10 10 10 10 9 9 9 9 8 8 8 7 7 7 7 8 8 6 6 6 5 5 5 5 5 5 5
9 10 10 10 10 10 10 10 10 10 10 10 10 10 9 9 9 9 9 9 8 8 7 7 8 8 7 7 6 5 5 6 6 5 5 5 5 5
9 9 10 10 10 10 10 10 10 10 10 9 9 9 9 9 9 8 8 8 8 7 7 8 8 7 6 6 6 5 5 5 6 6 6 6 6 6
9 9 9 10 10 10 9 9 9 9 9 9 9 9 8 8 8 8 8 8 7 7 7 7 7 6 6 6 6 5 5 5 4 5 5 7 7 7
Wind_Speed
9 10 9 8 8 7 6 5 5 5 5 4 4 4 5 5 5 8 9 12 14 14 13 12 12 10 8 7 6 6 6 6 7 8 8 9 9 10
5 7 7 6 7 7 6 5 4 4 3 3 3 3 3 4 4 6 6 8 11 12 13 12 12 11 10 8 7 6 7 7 8 9 9 10 10 10
2 4 5 5 5 6 6 6 5 4 3 2 2 3 4 4 4 5 6 7 9 10 10 10 11 11 10 9 8 7 7 8 8 9 9 10 11 11
2 2 3 4 5 5 5 6 5 4 4 4 4 4 5 4 4 4 4 5 5 8 7 7 7 7 7 7 7 6 7 7 7 8 8 9 10 11
3 3 3 4 5 5 5 5 4 4 3 4 4 3 4 4 5 4 5 4 5 8 8 7 6 5 3 1 1 2 3 3 4 5 6 7 8 9
2 3 4 4 5 5 4 5 5 5 4 4 4 4 4 4 5 5 6 5 5 7 10 12 14 15 13 11 8 6 5 4 4 4 4 4 4 5
1 2 3 4 5 5 4 4 5 4 4 4 5 4 4 5 4 4 6 7 6 6 7 7 9 10 11 13 14 14 14 13 13 12 11 10 10 10
2 3 4 3 4 4 4 3 3 3 4 4 4 5 5 4 4 5 7 7 4 5 7 7 8 9 11 12 14 15 15 15 15 15 15 15 15 15
4 3 3 5 5 4 5 6 5 5 2 1 4 4 5 5 6 6 6 6 6 5 8 7 7 9 11 14 16 16 16 16 15 15 16 17 18 18
5 4 4 6 5 5 5 5 6 6 4 3 6 6 5 5 5 7 10 11 9 5 6 5 6 7 9 13 17 18 18 18 17 16 15 16 18 19
5 5 4 6 7 5 5 6 7 7 11 15 14 12 11 9 5 7 9 9 7 5 4 4 6 7 7 8 14 19 20 19 19 17 15 12 7 7
4 5 7 5 5 3 6 6 7 6 7 8 8 9 9 9 4 4 5 8 8 5 4 5 7 6 5 4 5 7 11 16 19 20 19 19 15 6
3 4 5 6 5 3 2 5 5 7 7 7 7 7 7 7 7 7 6 4 6 5 5 5 5 4 5 5 4 5 5 5 7 11 16 19 21 16
4 4 5 6 5 4 4 7 7 6 6 6 7 7 7 8 8 10 12 12 11 8 5 3 3 4 6 7 4 3 5 5 6 6 8 8 10 14
5 8 7 5 6 7 8 8 6 6 6 7 7 7 7 8 8 9 11 13 14 13 9 6 4 3 3 5 6 5 4 4 5 6 6 7 8 8
5 7 7 7 7 8 7 5 4 5 6 7 8 7 6 6 6 6 7 7 8 9 11 12 10 8 7 7 6 6 4 3 3 4 5 6 7 8
3 4 5 5 6 6 6 5 5 6 7 7 7 7 6 6 5 4 4 4 6 7 7 8 13 14 12 7 6 6 5 4 3 2 2 4 5 6
3 6 6 6 5 5 6 6 6 6 6 6 6 6 6 5 5 5 4 5 6 6 6 6 6 7 7 7 9 4 4 3 2 2 1 2 4 4
6 6 6 5 5 5 5 6 6 6 6 6 6 5 5 5 5 5 4 5 5 5 4 3 3 3 3 5 4 6 2 2 1 1 1 2 2 3
6 6 5 5 5 5 5 6 6 6 6 6 6 5 5 5 4 4 4 4 4 4 4 3 1 1 1 4 5 3 4 2 1 1 1 1 1 3
6 5 5 5 5 5 5 5 6 6 6 6 5 5 4 4 4 4 4 3 3 4 4 4 3 1 3 5 5 4 4 3 4 4 4 2 2 2
5 5 5 5 5 5 5 5 5 6 6 5 5 4 3 3 4 4 4 4 4 4 5 5 5 4 4 4 4 5 4 4 3 1 1 3 4 3
3 3 3 3 3 3 3 4 4 4 4 4 4 3 3 3 3 3 4 4 5 5 6 6 5 4 3 3 3 3 3 2 2 3 3 6 5 8
Wind_Direction
236 229 222 214 206 201 191 189 194 198 209 218 207 200 208 215 181 214 218 197 207 214 214 211 208 208 213 220 230 236 239 238 232 233 240 253 265 273
232 224 217 210 199 192 187 186 192 188 194 195 204 177 190 207 194 225 220 170 201 211 214 213 210 210 214 218 226 233 243 244 243 244 247 256 265 272
216 203 199 192 188 181 178 177 182 178 187 179 194 193 200 207 184 202 203 203 193 193 204 209 210 213 214 217 226 235 245 250 252 254 259 265 270 273
84 129 162 172 172 169 170 170 171 177 187 189 191 196 203 191 189 187 186 190 176 149 172 185 193 203 209 220 232 242 252 259 265 268 272 276 279 282
103 114 128 135 138 142 150 157 159 172 185 191 180 174 188 180 179 169 163 154 141 132 129 121 111 106 103 113 243 267 273 279 284 288 289 291 293 294
113 123 131 137 138 135 140 151 158 165 170 176 172 174 174 176 183 169 153 137 127 115 95 94 90 82 75 70 66 66 66 60 51 37 22 10 1 357
94 118 122 122 141 146 151 159 164 162 166 175 171 169 167 171 170 163 144 128 108 110 105 93 89 78 72 66 66 71 74 75 74 72 69 65 61 57
54 92 113 122 133 134 136 137 137 160 169 171 165 161 152 148 146 153 149 147 119 105 100 82 79 74 62 62 65 72 74 74 74 74 73 71 69 66
36 68 103 102 109 117 122 125 100 67 29 148 136 129 134 141 150 151 149 127 107 113 107 91 82 79 72 63 65 69 71 72 73 75 77 74 72 69
45 64 103 113 111 110 116 103 94 82 60 84 95 93 96 115 125 122 115 110 101 93 110 100 98 92 84 69 64 68 69 70 72 75 77 77 77 72
49 56 78 110 105 109 117 114 101 85 67 68 69 77 68 58 79 127 133 129 118 101 103 110 124 111 97 94 80 75 72 70 68 65 62 56 61 94
60 71 66 73 100 118 146 143 130 121 115 107 100 104 97 86 48 120 136 137 132 120 129 136 152 141 110 82 80 85 81 79 74 66 56 44 24 33
68 72 71 69 85 87 147 143 138 135 127 115 103 93 85 81 75 71 73 102 121 112 140 157 171 172 138 129 84 62 69 80 87 84 70 61 50 42
62 71 76 75 89 88 114 115 125 135 131 120 105 94 89 83 78 78 78 74 76 92 117 158 160 167 147 138 128 104 77 66 64 65 69 93 82 75
69 66 71 80 121 107 108 129 148 143 133 120 107 99 97 100 97 93 90 85 77 65 59 69 96 122 133 131 131 137 110 69 59 61 59 54 51 45
96 100 94 74 92 100 124 137 138 127 127 120 115 116 116 113 109 109 108 106 92 76 62 63 69 79 88 95 109 109 105 100 72 63 68 66 60 54
94 112 114 114 107 105 102 100 111 121 118 122 128 132 130 122 112 104 106 111 112 108 96 86 82 78 67 66 103 99 105 103 89 63 71 79 67 56
82 92 93 94 96 98 100 101 102 108 115 124 130 133 133 129 120 112 112 115 118 120 120 124 127 123 112 74 36 93 105 110 99 58 14 63 75 62
76 81 83 86 89 93 98 103 103 107 115 122 125 126 126 125 123 120 120 124 127 129 131 151 184 197 176 134 87 26 65 119 156 130 44 16 39 48
66 71 76 80 86 94 100 107 112 116 117 117 117 118 122 125 127 130 132 136 141 143 142 144 155 209 175 136 133 110 30 358 310 326 316 249 186 200
70 72 76 86 93 99 103 110 115 116 117 118 117 119 125 132 136 138 128 121 163 161 151 128 106 349 101 122 134 141 115 57 9 355 343 319 277 261
71 76 76 81 92 100 109 118 122 122 126 126 126 128 129 135 145 152 154 162 162 147 133 128 147 175 181 188 161 154 162 166 161 159 352 339 330 321
77 76 81 84 87 101 120 133 138 138 139 140 141 141 142 144 151 156 158 158 152 151 153 155 163 173 173 168 169 169 174 206 246 240 209 191 237 261
Height
1510 1512 1514 1516 1518 1520 1523 1526 1530 1531 1533 1536 1539 1540 1542 1544 1545 1547 1549 1551 1553 1555 1556 1557 1558 1559 1560 1560 1560 1561 1561 1561 1561 1561 1561 1560 1559 1559
1505 1507 1508 1510 1512 1514 1517 1520 1523 1527 1529 1532 1535 1537 1538 1540 1541 1543 1545 1546 1549 1551 1553 1554 1556 1557 1557 1558 1558 1558 1559 1559 1559 1559 1558 1558 1557 1556
1501 1502 1503 1505 1507 1510 1512 1515 1519 1522 1526 1529 1531 1533 1535 1537 1538 1539 1541 1543 1545 1547 1549 1551 1553 1554 1555 1555 1556 1556 1556 1556 1556 1556 1555 1555 1554 1553
1499 1499 1500 1502 1504 1506 1509 1512 1515 1518 1522 1525 1528 1530 1532 1533 1535 1536 1538 1540 1542 1543 1545 1548 1549 1551 1552 1553 1553 1553 1554 1554 1553 1553 1552 1552 1551 1550
1499 1499 1499 1500 1502 1504 1507 1510 1513 1516 1520 1523 1525 1527 1529 1530 1532 1533 1535 1537 1539 1540 1542 1545 1546 1548 1549 1550 1550 1550 1551 1551 1550 1550 1549 1548 1547 1546
1500 1500 1500 1501 1502 1504 1507 1509 1512 1515 1518 1521 1523 1525 1526 1527 1529 1531 1533 1534 1536 1538 1540 1542 1543 1545 1546 1547 1547 1547 1548 1547 1547 1546 1545 1545 1544 1542
1502 1501 1501 1502 1504 1505 1508 1510 1512 1515 1517 1519 1521 1523 1524 1525 1527 1528 1531 1532 1535 1537 1538 1540 1542 1543 1544 1544 1545 1545 1545 1545 1544 1543 1543 1542 1541 1539
1502 1502 1503 1503 1505 1507 1509 1511 1513 1515 1518 1519 1520 1522 1523 1524 1525 1526 1529 1531 1534 1536 1537 1539 1541 1542 1543 1543 1544 1544 1544 1543 1543 1542 1541 1540 1539 1538
1503 1503 1503 1504 1506 1508 1510 1512 1514 1516 1518 1519 1520 1521 1522 1522 1524 1526 1528 1531 1532 1535 1538 1539 1541 1542 1543 1543 1544 1544 1544 1543 1542 1542 1541 1540 1539 1537
1503 1503 1504 1505 1507 1509 1511 1513 1515 1516 1518 1520 1521 1521 1522 1523 1524 1526 1528 1530 1533 1536 1539 1540 1542 1543 1544 1545 1545 1545 1545 1544 1543 1542 1541 1540 1539 1537
1504 1504 1505 1506 1508 1510 1512 1514 1516 1518 1519 1520 1521 1522 1523 1524 1525 1527 1529 1532 1534 1537 1540 1541 1543 1545 1546 1546 1546 1546 1545 1545 1544 1543 1542 1540 1539 1537
1504 1505 1506 1507 1509 1511 1514 1516 1518 1520 1521 1522 1524 1524 1525 1526 1528 1530 1532 1534 1536 1538 1540 1542 1544 1545 1546 1547 1547 1546 1546 1545 1544 1543 1542 1540 1539 1538
1505 1506 1506 1508 1510 1512 1515 1517 1519 1521 1523 1524 1526 1527 1528 1529 1530 1531 1533 1536 1537 1538 1540 1543 1544 1546 1546 1546 1546 1546 1546 1546 1545 1543 1542 1540 1539 1537
1505 1506 1507 1509 1511 1513 1516 1518 1520 1523 1524 1526 1528 1529 1530 1532 1533 1534 1535 1536 1537 1539 1541 1543 1544 1545 1546 1546 1546 1546 1546 1546 1545 1544 1543 1540 1538 1536
1506 1507 1508 1510 1512 1515 1517 1519 1522 1524 1526 1528 1530 1531 1533 1534 1535 1536 1537 1538 1539 1540 1541 1542 1543 1544 1546 1546 1545 1546 1546 1546 1545 1544 1543 1542 1540 1538
1508 1509 1510 1512 1514 1516 1518 1521 1523 1526 1528 1530 1531 1533 1535 1536 1537 1539 1539 1540 1541 1541 1541 1542 1542 1543 1544 1544 1545 1545 1545 1545 1545 1544 1544 1542 1540 1538
1510 1511 1513 1514 1516 1518 1520 1523 1525 1528 1529 1531 1533 1535 1536 1538 1539 1540 1541 1542 1542 1542 1542 1542 1542 1542 1543 1544 1545 1545 1545 1545 1544 1544 1544 1543 1541 1539
1513 1514 1515 1516 1518 1520 1522 1525 1527 1529 1531 1533 1535 1536 1537 1539 1540 1540 1541 1542 1542 1542 1542 1542 1543 1544 1544 1544 1545 1545 1545 1545 1545 1544 1544 1544 1542 1540
1516 1517 1518 1519 1521 1523 1525 1527 1529 1531 1532 1534 1536 1537 1538 1539 1540 1540 1540 1541 1542 1542 1542 1542 1544 1545 1546 1546 1545 1545 1545 1545 1545 1544 1543 1542 1541 1539
1519 1520 1521 1522 1524 1525 1527 1529 1531 1532 1534 1535 1536 1537 1538 1539 1539 1540 1540 1540 1541 1541 1541 1541 1542 1544 1546 1546 1545 1544 1543 1543 1544 1544 1543 1541 1539 1537
1523 1524 1524 1525 1526 1528 1529 1531 1532 1533 1535 1536 1536 1537 1538 1538 1538 1539 1539 1538 1540 1541 1541 1541 1540 1541 1542 1543 1544 1544 1543 1542 1541 1541 1540 1540 1540 1539
1526 1526 1527 1528 1529 1530 1531 1532 1533 1534 1535 1536 1536 1537 1537 1537 1537 1537 1538 1538 1539 1540 1540 1540 1540 1541 1543 1544 1545 1543 1542 1541 1540 1539 1538 1537 1537 1536
1527 1527 1528 1529 1529 1530 1531 1532 1533 1534 1534 1535 1535 1535 1536 1536 1536 1536 1537 1537 1538 1538 1539 1540 1540 1541 1542 1543 1543 1543 1542 1541 1540 1539 1538 1536 1535 1534